,

(GMT )
Al Udeid

Weather History for KQIR - October, 2012

Change the Weather History Date:

Tuesday, October 2, 2012

  Actual Average Record
Temperature  
Mean Temperature 90 °F -  
Max Temperature 102 °F - - ()
Min Temperature 77 °F - - ()
Cooling Degree Days 24    
Growing Degree Days 40 (Base 50)    
Moisture  
Dew Point 66 °F    
Average Humidity 53    
Maximum Humidity 88    
Minimum Humidity 19    
Precipitation  
Precipitation 0.00 in - - ()
Sea Level Pressure  
Sea Level Pressure 29.86 in    
Wind  
Wind Speed 6 mph ()    
Max Wind Speed 12 mph    
Max Gust Speed 17 mph    
Visibility 6.2 miles    
Events      
Averages and records for this station are not official NWS values.
T = Trace of Precipitation, MM = Missing Value Source: Averaged Metar Reports

Daily Weather History Graph

Daily Weather History Graph

Search for Another Location

Airport or City:

Trip Planner

Search our weather history database for the weather conditions in past years. The results will help you decide how hot, cold, wet, or windy it might be!

Date:

Astronomy

Oct. 02, 2012 Rise Set
Actual Time 5:27 AM +03 5:20 PM +03
Civil Twilight 5:04 AM +03 5:43 PM +03
Nautical Twilight 4:37 AM +03 6:09 PM +03
Astronomical Twilight 4:11 AM +03 6:36 PM +03
Moon 6:38 PM +03 (10/2) 7:14 AM +03 (10/2)
Length of Visible Light 12h 38m
Length of Day
11h 52m
Waning Gibbous, 95% of the Moon is Illuminated
Oct 2
Waning Gibbous
Oct 8
Last Quarter
Oct 15
New
Oct 22
First Quarter
Oct 29
Full

Hourly Weather History & Observations

Time (+03) Temp. Heat Index Dew Point Humidity Pressure Visibility Wind Dir Wind Speed Gust Speed Precip Events Conditions
12:55 AM 83.1 °F 89.2 °F 73.4 °F 72% 29.86 in 6.2 mi North 3.5 mph - N/A   Clear
1:55 AM 80.1 °F 84.2 °F 73.0 °F 79% 29.85 in 6.2 mi NW 5.8 mph - N/A   Clear
2:55 AM 79.3 °F - 73.0 °F 81% 29.85 in 6.2 mi NNW 5.8 mph - N/A   Clear
3:55 AM 78.6 °F - 73.6 °F 84% 29.86 in 6.2 mi Calm Calm - N/A   Clear
4:55 AM 77.2 °F - 73.0 °F 87% 29.87 in 6.2 mi WNW 5.8 mph - N/A   Clear
5:55 AM 77.2 °F - 73.4 °F 88% 29.88 in 5.6 mi WNW 5.8 mph - N/A   Clear
6:55 AM 81.1 °F 87.2 °F 75.0 °F 82% 29.90 in 6.2 mi WNW 4.6 mph - N/A   Clear
7:55 AM 86.0 °F 96.4 °F 76.6 °F 73% 29.91 in 6.2 mi NNW 5.8 mph - N/A   Clear
8:55 AM 90.7 °F 104.5 °F 77.5 °F 65% 29.91 in 6.2 mi North 5.8 mph - N/A   Clear
9:55 AM 94.3 °F 105.6 °F 75.0 °F 53% 29.90 in 6.2 mi North 8.1 mph - N/A   Clear
10:55 AM 100.4 °F 100.7 °F 59.9 °F 26% 29.88 in 6.2 mi East 11.5 mph - N/A   Clear
11:55 AM 102.2 °F 100.9 °F 55.2 °F 21% 29.86 in 6.2 mi ENE 10.4 mph 17.3 mph N/A   Clear
12:55 PM 102.0 °F 100.1 °F 53.6 °F 20% 29.83 in 6.2 mi ENE 11.5 mph - N/A   Clear
1:55 PM 102.4 °F - 52.9 °F 19% 29.81 in 6.2 mi ENE 10.4 mph - N/A   Clear
2:55 PM 101.5 °F 99.4 °F 53.2 °F 20% 29.81 in 6.2 mi ENE 9.2 mph - N/A   Clear
3:55 PM 100.0 °F 99.2 °F 57.4 °F 24% 29.82 in 6.2 mi ENE 11.5 mph - N/A   Clear
4:55 PM 98.2 °F - 50.0 °F 20% 29.83 in 6.2 mi ENE 10.4 mph - N/A   Clear
5:55 PM 95.2 °F - 50.0 °F 21% 29.84 in 6.2 mi ENE 9.2 mph - N/A   Clear
6:55 PM 92.7 °F 92.9 °F 61.3 °F 35% 29.86 in 6.2 mi NNE 9.2 mph - N/A   Clear
7:55 PM 91.0 °F 93.8 °F 66.2 °F 44% 29.87 in 6.2 mi North 4.6 mph - N/A   Clear
8:55 PM 88.9 °F 97.1 °F 73.6 °F 60% 29.87 in 6.2 mi North 6.9 mph - N/A   Clear
9:55 PM 86.2 °F 93.0 °F 72.7 °F 64% 29.87 in 6.2 mi NNW 5.8 mph - N/A   Clear
10:55 PM 83.5 °F 89.7 °F 73.0 °F 71% 29.86 in 6.2 mi NW 4.6 mph - N/A   Clear
11:55 PM 81.3 °F 85.9 °F 72.5 °F 74% 29.85 in 6.2 mi West 5.8 mph - N/A   Clear